{"data":{"norad_id":54015,"intl_designator":"2022-125BD","name":"STARLINK-5055","alt_names":[],"object_type":"PAYLOAD","status":"ACTIVE","operator":null,"country":"US","launch_date":"2022-10-05","launch_site_code":"AFWTR","launch_vehicle":null,"mission":null,"orbit_class":"UNKNOWN","rcs_meters":null,"size_class":null,"mass_kg":null,"dimensions":null,"purposes":["comms"],"wikipedia_slug":null,"has_3d_model":false,"image_url":null,"decayed_at":null,"tle_current":{"epoch":"2026-05-25T04:39:14.682816Z","epoch_age_seconds":58057,"freshness":"FRESH","line1":"1 54015U 22125BD  26145.19391994  .00000831  00000+0  70327-4 0  9994","line2":"2 54015  53.2166 220.5936 0001319  78.8735 281.2405 15.08834720201158","mean_motion":15.0883472,"eccentricity":0.0001319,"inclination_deg":53.2166,"raan_deg":220.5936,"arg_perigee_deg":78.8735,"mean_anomaly_deg":281.2405,"bstar":7.0327e-5,"rev_number":20115,"period_min":95.437888650919,"perigee_km":538.84705730685,"apogee_km":540.67199841089,"semimajor_km":6917.8965278589,"source":"CELESTRAK","updated_at":"2026-05-25T13:38:17.627195Z"}}}